Regional Weather Roundup
Issued by NWS Jackson, KY

Home | Current Version | Previous Version | Text Only | Print | Product List | Glossary On
Versions: 1 2 3 4 5 6 7 8 9 10 11 12 13 14 15 16 17 18 19 20 21 22 23 24 25 26 27
000
ASUS43 KJKL 181210
RWRJKL

EAST KENTUCKY HOURLY WEATHER ROUNDUP
NATIONAL WEATHER SERVICE JACKSON KY
700 AM EST MON DEC 18 2017

NOTE: "FAIR" INDICATES FEW OR NO CLOUDS BELOW 12,000 FEET WITH
NO SIGNIFICANT WEATHER AND/OR OBSTRUCTIONS TO VISIBILITY.

* THESE REPORTS ARE NOT UNDER NWS QUALITY CONTROL AND MAY NOT
  REPORT WEATHER SUCH AS PRECIPITATION AND FOG.

KYZ079-080-083-085-087-088-110-112-115-119-120-181300
...EASTERN KENTUCKY...

CITY           SKY/WX    TMP DP  RH WIND       PRES   REMARKS
JACKSON        CLOUDY    43  42  97 CALM      30.12F FOG
6HR MIN TEMP:  40; 6HR MAX TEMP:  43;

LONDON         CLOUDY    44  43  96 S5        30.14R FOG
6HR MIN TEMP:  42; 6HR MAX TEMP:  45;

SOMERSET*      CLOUDY    43  43 100 CALM      30.16R FOG
MONTICELLO*    CLOUDY    45  44  97 CALM      30.16R FOG
6HR MIN TEMP:  42; 6HR MAX TEMP:  45;

WILLIAMSBURG*  CLOUDY    43  43 100 SE3       30.15R
MIDDLESBORO*   CLOUDY    40  40 100 CALM      30.17S FOG
6HR MIN TEMP:  40; 6HR MAX TEMP:  41;

HARLAN APT*    CLOUDY    39  37  93 CALM      30.16R VSB 1/2
PIKE CO APT*   FOG       42  42 100 CALM      30.14S VSB 1/4
BIG SANDY APT* CLOUDY    42  42 100 S5        30.13F FOG
6HR MIN TEMP:  40; 6HR MAX TEMP:  42;

MOREHEAD APT*  FOG       41  41 100 S3        30.12F VSB 1/4
$$

KYZ035-036-041-042-044-050-067-078-099-181300
...CENTRAL KENTUCKY...

CITY           SKY/WX    TMP DP  RH WIND       PRES   REMARKS
MT STERLING*   FOG       43  43 100 SW5       30.13S VSB 1
FLEMING/MASON* FOG       40  40 100 SW7       30.12R VSB 1
DANVILLE*      CLOUDY    43  41  93 SW7       30.14R
LEXINGTON      FOG       44  41  89 SW9       30.11F VSB 1/2
6HR MIN TEMP:  42; 6HR MAX TEMP:  44;

FRANKFORT      CLOUDY    44  41  89 SW9       30.10S FOG
6HR MIN TEMP:  42; 6HR MAX TEMP:  44;

LOUISVILLE     CLOUDY    46  42  86 SW8       30.12R
6HR MIN TEMP:  44; 6HR MAX TEMP:  46;

LEBANON*       CLOUDY    43  43 100 S8        30.14R FOG
GLASGOW*       DRIZZLE  N/A N/A N/A CALM      30.15R
BOWLING GREEN  CLOUDY    47  46  97 SW3       30.15R FOG
6HR MIN TEMP:  44; 6HR MAX TEMP:  47;

$$

KYZ091>093-OHZ055-061-077-WVZ005-015-034-035-042-181300
...SOUTHERN OHIO/WEST VIRGINIA...

CITY           SKY/WX    TMP DP  RH WIND       PRES   REMARKS
COVINGTON      LGT RAIN  42  42 100 SW8       30.08R VSB 1
COLUMBUS       CLOUDY    41  38  89 S12       30.08R
DAYTON         CLOUDY    40  40 100 SW13      30.05R FOG     WCI  32
WILMINGTON     CLOUDY    39  39 100 SW12      30.07R FOG     WCI  32
HUNTINGTON     CLOUDY    42  40  92 S5        30.12F FOG
CHARLESTON     FOG       42  40  92 SW5       30.13R VSB 1
PINEVILLE*     CLOUDY    38  38  98 MISG      30.19S FOG
BECKLEY        CLOUDY    39  38  96 SW8       30.11R FOG     WCI  33
BLUEFIELD      FOG       39  38  96 W10       30.12S VSB 1/2 WCI  32
LOGAN CO APT*  FOG       41  41 100 CALM      30.13R VSB<1/4
$$

VAZ002-007-008-TNZ017-027-036-066-071-181300
...SOUTHWEST VIRGINIA/EAST TENNESSEE...

CITY           SKY/WX    TMP DP  RH WIND       PRES   REMARKS
WISE*          FOG       41  41 100 W6        30.14S VSB 3/4
JONESVILLE*    CLOUDY    39  39 100 CALM      30.19R FOG
ABINGDON*      FOG       40  40 100 CALM      30.15F VSB 3/4
BRISTOL        FOG       40  40 100 CALM      30.17S VSB 1
MORRISTOWN*    CLOUDY    39  39 100 CALM      30.17R FOG
SEVIERVILLE*   CLOUDY    41  39  93 CALM      30.18S FOG
KNOXVILLE      DRIZZLE   41  41 100 CALM      30.18R FOG
LAFOLLETTE*    FOG       41  41 100 CALM      30.21R VSB 1
OAK RIDGE      CLOUDY    42  42 100 CALM      30.20R FOG
CROSSVILLE     CLOUDY    44  44 100 S3        30.14F FOG
NASHVILLE      CLOUDY    48  46  93 S3        30.15R FOG
$$

...KEY TO REMARKS...
VSB - VISIBILITY IN MILES
WCI - WIND CHILL INDEX
HX  - HEAT INDEX

$$




USA.gov is the U.S. government's official web portal to all federal, state and local government web resources and services.